TimeEST,TemperatureF,Dew PointF,Humidity,Sea Level PressureIn,VisibilityMPH,Wind Direction,Wind SpeedMPH,Gust SpeedMPH,PrecipitationIn,Events,Conditions,WindDirDegrees,DateUTC
12:15 AM,48.2,35.6,62,30.05,10.0,SSE,4.6,-,N/A,,Clear,150,2012-12-20 05:15:00
12:35 AM,48.2,35.6,62,30.05,10.0,SSE,3.5,-,N/A,,Clear,150,2012-12-20 05:35:00
12:55 AM,46.4,35.6,66,30.04,10.0,SE,5.8,-,N/A,,Clear,140,2012-12-20 05:55:00
1:15 AM,46.4,35.6,66,30.03,10.0,SE,4.6,-,N/A,,Clear,130,2012-12-20 06:15:00
1:35 AM,48.2,35.6,62,30.02,10.0,SE,3.5,-,N/A,,Clear,140,2012-12-20 06:35:00
2:15 AM,44.6,35.6,71,30.01,10.0,ESE,3.5,-,N/A,,Clear,120,2012-12-20 07:15:00
2:35 AM,46.4,35.6,66,30.01,10.0,ESE,4.6,-,N/A,,Clear,110,2012-12-20 07:35:00
2:55 AM,44.6,35.6,71,30.01,10.0,Variable,3.5,-,N/A,,Clear,0,2012-12-20 07:55:00
3:15 AM,46.4,35.6,66,30.01,10.0,SE,5.8,-,N/A,,Clear,130,2012-12-20 08:15:00
3:35 AM,46.4,35.6,66,30.00,10.0,Variable,6.9,-,N/A,,Clear,0,2012-12-20 08:35:00
3:55 AM,46.4,35.6,66,29.99,10.0,NNE,6.9,-,N/A,,Clear,20,2012-12-20 08:55:00
4:15 AM,44.6,35.6,71,29.99,10.0,Variable,3.5,-,N/A,,Clear,0,2012-12-20 09:15:00
4:35 AM,46.4,35.6,66,29.99,10.0,Variable,3.5,-,N/A,,Clear,0,2012-12-20 09:35:00
4:55 AM,44.6,35.6,71,29.97,10.0,Variable,6.9,-,N/A,,Clear,0,2012-12-20 09:55:00
5:15 AM,44.6,35.6,71,29.96,10.0,SE,8.1,-,N/A,,Clear,130,2012-12-20 10:15:00
5:35 AM,44.6,35.6,71,29.95,10.0,Variable,6.9,-,N/A,,Clear,0,2012-12-20 10:35:00
5:55 AM,42.8,35.6,76,29.94,10.0,ESE,8.1,-,N/A,,Clear,110,2012-12-20 10:55:00
6:15 AM,42.8,35.6,76,29.94,10.0,ESE,6.9,-,N/A,,Clear,120,2012-12-20 11:15:00
6:35 AM,42.8,33.8,70,29.92,10.0,Variable,6.9,-,N/A,,Clear,0,2012-12-20 11:35:00
6:55 AM,42.8,33.8,70,29.87,10.0,ESE,9.2,-,N/A,,Clear,110,2012-12-20 11:55:00
7:15 AM,42.8,33.8,70,29.87,10.0,East,8.1,-,N/A,,Clear,100,2012-12-20 12:15:00
7:35 AM,42.8,33.8,70,29.84,10.0,ESE,9.2,-,N/A,,Clear,110,2012-12-20 12:35:00
7:55 AM,44.6,33.8,66,29.83,10.0,ESE,10.4,-,N/A,,Clear,110,2012-12-20 12:55:00
8:15 AM,44.6,33.8,66,29.83,10.0,ESE,13.8,26.5,N/A,,Clear,120,2012-12-20 13:15:00
8:35 AM,44.6,35.6,71,29.85,10.0,ESE,9.2,-,N/A,,Clear,120,2012-12-20 13:35:00
8:55 AM,44.6,35.6,71,29.85,10.0,SE,8.1,24.2,N/A,,Clear,130,2012-12-20 13:55:00
9:15 AM,44.6,35.6,71,29.86,10.0,Variable,5.8,-,N/A,,Clear,0,2012-12-20 14:15:00
9:35 AM,44.6,35.6,71,29.85,10.0,ESE,11.5,23.0,N/A,,Clear,120,2012-12-20 14:35:00
9:55 AM,44.6,37.4,76,29.86,10.0,ESE,11.5,-,N/A,,Partly Cloudy,120,2012-12-20 14:55:00
10:15 AM,42.8,37.4,81,29.88,10.0,SE,10.4,-,N/A,,Partly Cloudy,140,2012-12-20 15:15:00
10:35 AM,42.8,42.8,100,29.86,7.0,Variable,6.9,-,N/A,,Clear,0,2012-12-20 15:35:00
10:55 AM,42.8,42.8,100,29.86,8.0,Variable,5.8,-,N/A,,Clear,0,2012-12-20 15:55:00
11:15 AM,42.8,42.8,100,29.83,7.0,SE,9.2,-,N/A,,Unknown,130,2012-12-20 16:15:00
11:35 AM,42.8,42.8,100,29.82,10.0,Variable,4.6,-,N/A,,Unknown,0,2012-12-20 16:35:00
11:55 AM,42.8,42.8,100,29.79,10.0,East,8.1,-,N/A,,Partly Cloudy,90,2012-12-20 16:55:00
12:15 PM,44.6,42.8,93,29.76,10.0,Variable,5.8,-,N/A,,Mostly Cloudy,0,2012-12-20 17:15:00
12:35 PM,44.6,42.8,93,29.73,10.0,East,8.1,-,N/A,,Mostly Cloudy,100,2012-12-20 17:35:00
12:55 PM,44.6,41.0,87,29.72,10.0,Variable,3.5,-,N/A,,Mostly Cloudy,0,2012-12-20 17:55:00
1:15 PM,44.6,41.0,87,29.70,10.0,Variable,4.6,-,N/A,,Overcast,0,2012-12-20 18:15:00
1:35 PM,44.6,39.2,81,29.65,10.0,ESE,10.4,21.9,N/A,,Scattered Clouds,110,2012-12-20 18:35:00
1:55 PM,44.6,37.4,76,29.64,10.0,SE,8.1,-,N/A,,Partly Cloudy,140,2012-12-20 18:55:00
2:15 PM,44.6,37.4,76,29.65,5.0,SSE,11.5,27.6,N/A,,Partly Cloudy,150,2012-12-20 19:15:00
2:35 PM,42.8,41.0,93,29.62,6.0,Variable,6.9,-,N/A,,Clear,0,2012-12-20 19:35:00
2:55 PM,42.8,41.0,93,29.60,5.0,SE,8.1,20.7,N/A,,Clear,140,2012-12-20 19:55:00
3:15 PM,42.8,42.8,100,29.57,8.0,SE,9.2,-,N/A,,Unknown,140,2012-12-20 20:15:00
3:35 PM,42.8,42.8,100,29.57,10.0,SE,9.2,-,N/A,,Unknown,140,2012-12-20 20:35:00
3:55 PM,42.8,42.8,100,29.55,10.0,SE,9.2,-,N/A,,Unknown,130,2012-12-20 20:55:00
4:15 PM,44.6,44.6,100,29.56,6.0,SSE,8.1,31.1,N/A,,Unknown,150,2012-12-20 21:15:00
4:35 PM,44.6,44.6,100,29.53,6.0,SE,9.2,21.9,N/A,,Unknown,130,2012-12-20 21:35:00
4:55 PM,44.6,44.6,100,29.53,6.0,SSE,10.4,21.9,N/A,,Partly Cloudy,150,2012-12-20 21:55:00
5:15 PM,44.6,44.6,100,29.54,6.0,SSE,10.4,-,N/A,,Partly Cloudy,160,2012-12-20 22:15:00
5:35 PM,44.6,44.6,100,29.54,9.0,South,11.5,-,N/A,,Scattered Clouds,180,2012-12-20 22:35:00
5:55 PM,46.4,46.4,100,29.54,6.0,SSE,12.7,-,N/A,,Scattered Clouds,160,2012-12-20 22:55:00
6:15 PM,46.4,46.4,100,29.53,8.0,South,19.6,-,N/A,,Mostly Cloudy,170,2012-12-20 23:15:00
6:35 PM,46.4,46.4,100,29.54,10.0,South,12.7,-,N/A,,Mostly Cloudy,170,2012-12-20 23:35:00
6:55 PM,44.6,44.6,100,29.53,10.0,Variable,5.8,-,N/A,,Mostly Cloudy,0,2012-12-20 23:55:00
7:15 PM,46.4,46.4,100,29.50,10.0,SSE,12.7,23.0,N/A,,Mostly Cloudy,160,2012-12-21 00:15:00
7:35 PM,46.4,46.4,100,29.51,8.0,WSW,13.8,25.3,N/A,,Mostly Cloudy,250,2012-12-21 00:35:00
7:55 PM,44.6,44.6,100,29.51,8.0,SW,16.1,24.2,N/A,,Mostly Cloudy,230,2012-12-21 00:55:00
8:15 PM,44.6,42.8,93,29.51,9.0,SW,11.5,-,N/A,,Mostly Cloudy,230,2012-12-21 01:15:00
8:35 PM,44.6,44.6,100,29.50,10.0,WSW,11.5,23.0,N/A,,Mostly Cloudy,240,2012-12-21 01:35:00
8:55 PM,44.6,42.8,93,29.51,10.0,SW,9.2,-,N/A,,Mostly Cloudy,220,2012-12-21 01:55:00
9:15 PM,42.8,41.0,93,29.51,10.0,WSW,12.7,-,N/A,,Mostly Cloudy,240,2012-12-21 02:15:00
9:35 PM,41.0,41.0,100,29.53,4.0,SW,9.2,-,N/A,,Mostly Cloudy,230,2012-12-21 02:35:00
9:55 PM,39.2,39.2,100,29.54,10.0,WSW,11.5,24.2,N/A,,Mostly Cloudy,240,2012-12-21 02:55:00
10:15 PM,37.4,35.6,93,29.56,10.0,WSW,11.5,25.3,N/A,,Overcast,250,2012-12-21 03:15:00
10:35 PM,35.6,30.2,81,29.56,10.0,WSW,8.1,25.3,N/A,,Overcast,240,2012-12-21 03:35:00
10:55 PM,35.6,30.2,81,29.57,10.0,WSW,15.0,28.8,N/A,,Overcast,240,2012-12-21 03:55:00
11:55 PM,33.8,28.4,81,29.57,10.0,SW,9.2,-,N/A,,Overcast,230,2012-12-21 04:55:00